• în Republica Moldova
  • Lista ţărilor
  • Pe 7 zile
  • Temperatura apei
  • Hartă satelitară
  • Meteo pe hartă
  • Widget-uri
  • user-avatar
    Intrare

    Meteo pe oră la Adelaide

    Astăzi, 14 Decembrie, Joi

    Timp Temperatura Precipitaţii Vânt Presiune Umiditate
    00:00 +21°C° 0 mm 4 m/s 751 mmHg 76%
    01:00 +20°C° 0 mm 4 m/s 751 mmHg 79%
    02:00 +20°C° 0 mm 4 m/s 752 mmHg 82%
    03:00 +19°C° 0 mm 4 m/s 752 mmHg 84%
    04:00 +19°C° 0 mm 4 m/s 752 mmHg 83%
    05:00 +19°C° 0 mm 4 m/s 753 mmHg 81%
    06:00 +19°C° 0 mm 4 m/s 753 mmHg 79%
    07:00 +20°C° 0 mm 4 m/s 754 mmHg 76%
    08:00 +20°C° 0 mm 4 m/s 754 mmHg 73%
    09:00 +20°C° 0 mm 4 m/s 755 mmHg 70%
    10:00 +21°C° 0 mm 4 m/s 755 mmHg 64%
    11:00 +22°C° 0 mm 4 m/s 755 mmHg 58%
    12:00 +22°C° 0 mm 4 m/s 755 mmHg 52%
    13:00 +23°C° 0 mm 4 m/s 755 mmHg 50%
    14:00 +23°C° 0 mm 4 m/s 755 mmHg 48%
    15:00 +25°C° 0 mm 5 m/s 755 mmHg 45%
    16:00 +23°C° 0 mm 4 m/s 755 mmHg 49%
    17:00 +22°C° 0 mm 4 m/s 755 mmHg 52%
    18:00 +21°C° 0 mm 4 m/s 755 mmHg 55%
    19:00 +20°C° 0 mm 4 m/s 756 mmHg 60%
    20:00 +19°C° 0 mm 4 m/s 756 mmHg 64%
    21:00 +18°C° 0 mm 4 m/s 756 mmHg 69%
    22:00 +17°C° 0 mm 3 m/s 756 mmHg 71%
    23:00 +17°C° 0 mm 3 m/s 756 mmHg 72%

    Mâine, 15 Decembrie, Vineri

    Timp Temperatura Precipitaţii Vânt Presiune Umiditate
    00:00 +16°C° 0 mm 2 m/s 756 mmHg 74%
    01:00 +16°C° 0 mm 2 m/s 756 mmHg 76%
    02:00 +15°C° 0 mm 2 m/s 756 mmHg 77%
    03:00 +15°C° 0 mm 2 m/s 756 mmHg 78%
    04:00 +16°C° 0 mm 1 m/s 756 mmHg 76%
    05:00 +16°C° 0 mm 1 m/s 756 mmHg 73%
    06:00 +18°C° 0 mm 1 m/s 756 mmHg 70%
    07:00 +20°C° 0 mm 1 m/s 756 mmHg 60%
    08:00 +22°C° 0 mm 1 m/s 756 mmHg 51%
    09:00 +22°C° 0 mm 0 m/s 756 mmHg 42%
    10:00 +25°C° 0 mm 1 m/s 756 mmHg 39%
    11:00 +25°C° 0 mm 2 m/s 756 mmHg 36%
    12:00 +26°C° 0 mm 3 m/s 755 mmHg 33%
    13:00 +26°C° 0 mm 3 m/s 755 mmHg 33%
    14:00 +27°C° 0 mm 4 m/s 754 mmHg 33%
    15:00 +27°C° 0 mm 4 m/s 754 mmHg 32%
    16:00 +26°C° 0 mm 4 m/s 754 mmHg 35%
    17:00 +25°C° 0 mm 4 m/s 754 mmHg 39%
    18:00 +23°C° 0 mm 4 m/s 755 mmHg 42%
    19:00 +22°C° 0 mm 4 m/s 755 mmHg 48%
    20:00 +20°C° 0 mm 3 m/s 756 mmHg 53%
    21:00 +19°C° 0 mm 3 m/s 756 mmHg 59%
    22:00 +19°C° 0 mm 3 m/s 756 mmHg 63%
    23:00 +18°C° 0 mm 3 m/s 756 mmHg 67%

    Poimâine, 16 Decembrie, Sâmbătă

    Timp Temperatura Precipitaţii Vânt Presiune Umiditate
    00:00 +17°C° 0 mm 2 m/s 756 mmHg 72%
    01:00 +17°C° 0 mm 2 m/s 756 mmHg 75%
    02:00 +17°C° 0 mm 2 m/s 756 mmHg 78%
    03:00 +16°C° 0 mm 2 m/s 756 mmHg 80%
    04:00 +17°C° 0 mm 2 m/s 756 mmHg 79%
    05:00 +18°C° 0 mm 1 m/s 757 mmHg 77%
    06:00 +19°C° 0 mm 1 m/s 757 mmHg 76%
    07:00 +21°C° 0 mm 1 m/s 757 mmHg 66%
    08:00 +23°C° 0 mm 1 m/s 757 mmHg 56%
    09:00 +25°C° 0 mm 1 m/s 758 mmHg 46%
    10:00 +26°C° 0 mm 2 m/s 757 mmHg 42%
    11:00 +28°C° 0 mm 2 m/s 757 mmHg 39%
    12:00 +29°C° 0 mm 3 m/s 757 mmHg 35%
    13:00 +29°C° 0 mm 3 m/s 757 mmHg 36%
    14:00 +29°C° 0 mm 4 m/s 756 mmHg 36%
    15:00 +29°C° 0 mm 5 m/s 756 mmHg 37%
    16:00 +27°C° 0 mm 5 m/s 756 mmHg 41%
    17:00 +26°C° 0 mm 5 m/s 756 mmHg 46%
    18:00 +25°C° 0 mm 5 m/s 756 mmHg 50%
    19:00 +22°C° 0 mm 5 m/s 757 mmHg 54%
    20:00 +21°C° 0 mm 5 m/s 757 mmHg 59%
    21:00 +20°C° 0 mm 4 m/s 757 mmHg 63%
    22:00 +20°C° 0 mm 4 m/s 757 mmHg 64%
    23:00 +19°C° 0 mm 4 m/s 757 mmHg 66%

    17 Decembrie, Duminică

    Timp Temperatura Precipitaţii Vânt Presiune Umiditate
    00:00 +19°C° 0 mm 4 m/s 756 mmHg 67%
    01:00 +18°C° 0 mm 4 m/s 756 mmHg 67%
    02:00 +18°C° 0 mm 3 m/s 755 mmHg 67%
    03:00 +18°C° 0 mm 3 m/s 755 mmHg 66%
    04:00 +19°C° 0 mm 3 m/s 755 mmHg 63%
    05:00 +20°C° 0 mm 3 m/s 755 mmHg 60%
    06:00 +21°C° 0 mm 4 m/s 755 mmHg 57%
    07:00 +23°C° 0 mm 4 m/s 755 mmHg 51%
    08:00 +26°C° 0 mm 4 m/s 755 mmHg 45%
    09:00 +28°C° 0 mm 4 m/s 755 mmHg 38%
    10:00 +30°C° 0 mm 3 m/s 755 mmHg 35%
    11:00 +31°C° 0 mm 3 m/s 754 mmHg 31%
    12:00 +33°C° 0 mm 3 m/s 753 mmHg 27%
    13:00 +34°C° 0 mm 4 m/s 753 mmHg 25%
    14:00 +35°C° 0 mm 4 m/s 752 mmHg 22%
    15:00 +36°C° 0 mm 5 m/s 751 mmHg 19%
    16:00 +36°C° 0 mm 4 m/s 751 mmHg 20%
    17:00 +35°C° 0 mm 3 m/s 751 mmHg 21%
    18:00 +35°C° 0 mm 2 m/s 751 mmHg 22%
    19:00 +34°C° 0 mm 3 m/s 751 mmHg 21%
    20:00 +33°C° 0 mm 3 m/s 751 mmHg 21%
    21:00 +33°C° 0 mm 4 m/s 751 mmHg 21%
    22:00 +32°C° 0 mm 4 m/s 751 mmHg 21%
    23:00 +31°C° 0 mm 3 m/s 750 mmHg 22%

    18 Decembrie, Luni

    Timp Temperatura Precipitaţii Vânt Presiune Umiditate
    00:00 +31°C° 0 mm 3 m/s 750 mmHg 22%
    01:00 +30°C° 0,2 mm 4 m/s 750 mmHg 26%
    02:00 +29°C° 0,2 mm 4 m/s 750 mmHg 30%
    03:00 +29°C° 0,2 mm 4 m/s 749 mmHg 34%
    04:00 +29°C° 0,1 mm 5 m/s 749 mmHg 34%
    05:00 +30°C° 0,1 mm 6 m/s 749 mmHg 34%
    06:00 +30°C° 0,1 mm 6 m/s 749 mmHg 34%
    07:00 +33°C° 0 mm 7 m/s 748 mmHg 29%
    08:00 +34°C° 0 mm 8 m/s 748 mmHg 25%
    09:00 +35°C° 0 mm 8 m/s 748 mmHg 21%
    10:00 +36°C° 0 mm 7 m/s 747 mmHg 20%
    11:00 +38°C° 0 mm 7 m/s 747 mmHg 19%
    12:00 +38°C° 0 mm 6 m/s 746 mmHg 18%
    13:00 +38°C° 0,2 mm 6 m/s 745 mmHg 21%
    14:00 +36°C° 0,2 mm 5 m/s 744 mmHg 24%
    15:00 +36°C° 0,2 mm 5 m/s 743 mmHg 27%
    16:00 +34°C° 2,2 mm 6 m/s 743 mmHg 36%
    17:00 +32°C° 2,2 mm 6 m/s 743 mmHg 45%
    18:00 +29°C° 2,2 mm 7 m/s 743 mmHg 53%
    19:00 +28°C° 5,3 mm 6 m/s 744 mmHg 62%
    20:00 +27°C° 5,3 mm 5 m/s 745 mmHg 71%
    21:00 +26°C° 5,3 mm 4 m/s 746 mmHg 80%
    22:00 +25°C° 0,7 mm 4 m/s 745 mmHg 81%
    23:00 +25°C° 0,7 mm 4 m/s 745 mmHg 82%

    19 Decembrie, Marţi

    Timp Temperatura Precipitaţii Vânt Presiune Umiditate
    00:00 +23°C° 0,7 mm 4 m/s 744 mmHg 83%
    01:00 +22°C° 0 mm 4 m/s 744 mmHg 81%
    02:00 +22°C° 0 mm 4 m/s 744 mmHg 79%
    03:00 +21°C° 0 mm 4 m/s 744 mmHg 78%
    04:00 +21°C° 0 mm 5 m/s 745 mmHg 73%
    05:00 +21°C° 0 mm 6 m/s 746 mmHg 68%
    06:00 +22°C° 0 mm 7 m/s 746 mmHg 64%
    07:00 +22°C° 0 mm 8 m/s 747 mmHg 60%
    08:00 +22°C° 0 mm 9 m/s 747 mmHg 55%
    09:00 +23°C° 0 mm 10 m/s 748 mmHg 51%
    10:00 +23°C° 0 mm 10 m/s 748 mmHg 49%
    11:00 +24°C° 0 mm 10 m/s 748 mmHg 47%
    12:00 +24°C° 0 mm 10 m/s 748 mmHg 45%
    13:00 +24°C° 0 mm 9 m/s 748 mmHg 45%
    14:00 +26°C° 0 mm 9 m/s 748 mmHg 45%
    15:00 +26°C° 0 mm 9 m/s 748 mmHg 44%
    16:00 +24°C° 0 mm 9 m/s 748 mmHg 47%
    17:00 +23°C° 0 mm 9 m/s 748 mmHg 49%
    18:00 +22°C° 0 mm 9 m/s 749 mmHg 51%
    19:00 +22°C° 0 mm 9 m/s 749 mmHg 54%
    20:00 +21°C° 0 mm 9 m/s 750 mmHg 57%
    21:00 +19°C° 0 mm 9 m/s 750 mmHg 60%
    22:00 +19°C° 0,1 mm 10 m/s 751 mmHg 61%
    23:00 +18°C° 0,1 mm 10 m/s 751 mmHg 62%
    Arată mai mult